Date,TemperatureHighF,TemperatureAvgF,TemperatureLowF,DewpointHighF,DewpointAvgF,DewpointLowF,HumidityHigh,HumidityAvg,HumidityLow,PressureMaxIn,PressureMinIn,WindSpeedMaxMPH,WindSpeedAvgMPH,GustSpeedMaxMPH,PrecipitationSumIn
2013-1-1,33.2,26.3,14.1,28.0,14.8,2.6,87,63,41,29.90,29.63,16,7,25,0.00
2013-1-2,22.5,13.2,5.0,7.7,1.7,-5.5,80,60,44,30.07,29.86,13,6,21,0.00
2013-1-3,23.4,12.0,4.6,6.9,1.1,-5.2,83,62,44,30.13,29.98,10,3,19,0.00
2013-1-4,35.8,23.2,5.0,27.4,17.1,1.7,92,78,66,29.97,29.75,15,5,25,0.00
2013-1-5,35.6,30.2,15.7,28.6,18.6,11.0,83,63,43,30.30,29.75,13,6,21,0.00
2013-1-6,33.5,24.7,13.9,26.4,20.8,10.4,92,85,71,30.27,29.94,9,1,19,0.01
2013-1-7,28.3,22.8,16.2,26.5,17.7,12.0,94,81,60,30.44,29.97,13,4,20,0.00
2013-1-8,41.7,32.6,17.1,31.1,25.6,14.6,95,76,56,30.38,30.21,21,7,31,0.00
2013-1-9,43.8,32.7,20.0,38.7,28.3,17.5,93,84,70,30.44,29.90,14,4,30,0.00
2013-1-10,44.3,39.5,27.7,33.1,27.4,22.3,81,62,50,30.55,29.91,17,9,24,0.00
2013-1-11,40.4,31.8,25.5,34.9,24.2,19.7,83,74,54,30.57,30.28,6,2,15,0.00
2013-1-12,44.3,41.1,37.9,42.6,38.5,35.3,98,90,82,30.29,30.14,6,1,15,0.00
2013-1-13,48.5,43.6,39.2,48.5,43.2,38.6,100,99,98,30.18,29.98,11,5,15,0.00
2013-1-14,56.7,46.9,38.0,51.6,41.5,25.7,99,83,58,30.22,29.88,11,6,15,0.00
2013-1-15,38.6,34.5,29.6,27.9,25.2,21.5,85,69,57,30.34,30.23,6,2,13,0.00
2013-1-16,34.2,32.9,31.4,33.0,29.5,21.4,98,88,65,30.30,29.79,4,1,13,0.63
2013-1-17,38.6,29.7,16.7,34.6,23.2,1.0,97,78,48,30.16,29.79,10,4,16,0.00
2013-1-18,21.2,14.0,8.0,8.8,-1.1,-8.7,75,51,35,30.44,30.12,12,6,18,0.00
2013-1-19,42.8,34.9,21.4,32.5,24.5,9.3,80,66,59,30.40,29.90,21,8,24,0.00
2013-1-20,47.9,41.5,27.5,38.7,29.4,12.9,81,63,37,29.90,29.47,18,11,24,0.00
2013-1-21,27.3,21.5,15.2,18.4,7.0,-0.8,87,55,32,30.08,29.84,11,5,16,0.00
2013-1-22,19.6,14.8,9.6,16.1,6.2,-9.1,87,69,41,30.06,29.78,13,6,21,0.00
2013-1-23,9.4,4.3,1.0,-8.7,-12.7,-15.7,53,45,37,30.12,30.05,15,9,21,0.00
2013-1-24,12.6,5.6,-0.7,-6.6,-10.5,-14.5,60,48,32,30.14,29.96,17,10,28,0.00
2013-1-25,20.4,12.1,4.6,3.1,-2.0,-7.1,68,53,36,30.23,30.09,14,6,28,0.00
2013-1-26,21.6,14.9,9.4,2.1,-1.2,-5.1,61,49,33,30.15,30.00,14,7,28,0.00
2013-1-27,24.2,17.0,12.4,4.4,0.1,-3.0,59,47,34,30.44,30.14,14,7,28,0.00
2013-1-28,26.7,19.5,9.2,20.6,7.5,-2.9,94,63,31,30.46,30.10,7,2,21,0.06
2013-1-29,39.9,26.8,17.3,37.4,24.5,15.0,96,91,83,30.25,30.10,7,1,21,0.00
2013-1-30,52.8,46.4,38.1,52.3,45.8,37.3,99,97,90,30.18,29.49,16,10,24,0.15
2013-1-31,55.0,45.6,31.5,54.7,37.0,15.2,99,74,46,29.48,28.88,24,15,34,0.06
2013-2-1,31.2,26.0,16.7,17.7,9.4,3.4,59,49,37,30.06,29.47,16,9,34,0.00
2013-2-2,26.3,20.5,13.1,20.8,9.1,2.1,87,62,43,30.24,30.06,9,3,34,0.00
2013-2-3,27.4,24.8,22.2,20.6,18.6,15.4,92,78,64,30.08,29.70,11,5,34,0.00
2013-2-4,28.4,23.5,17.1,15.9,9.2,0.5,76,55,37,29.90,29.67,16,7,30,0.00
2013-2-5,27.0,17.4,9.5,12.5,3.3,-2.8,80,55,30,30.07,29.90,6,1,8,0.00
2013-2-6,36.5,26.2,16.4,26.4,15.8,-3.2,86,66,35,30.30,29.95,12,5,19,0.00
2013-2-7,19.6,14.6,10.6,-1.5,-6.6,-13.0,52,39,23,30.62,30.31,12,5,18,0.00
2013-2-8,22.4,15.4,11.3,20.9,11.0,-1.3,94,84,52,30.61,29.89,23,8,29,0.03
2013-2-9,19.1,14.5,11.0,13.8,10.7,8.4,91,85,70,30.13,29.66,29,19,43,0.00
2013-2-10,36.3,22.4,11.7,14.3,7.7,2.5,76,56,28,30.38,30.12,12,4,18,0.00
2013-2-11,43.5,27.9,7.5,43.0,25.0,3.7,100,89,60,30.38,29.59,12,2,13,0.49
2013-2-12,42.6,35.0,32.4,34.3,32.8,31.6,97,92,70,29.61,29.53,9,4,14,0.00
2013-2-13,43.6,36.4,30.4,29.7,27.5,25.0,88,71,49,29.84,29.76,9,3,13,0.00
2013-2-14,40.6,33.6,26.2,27.7,22.8,19.2,86,66,43,30.03,29.73,11,3,14,0.00
2013-2-15,44.7,35.7,23.7,38.9,31.9,20.9,96,86,76,30.03,29.94,16,4,22,0.00
2013-2-16,35.6,32.8,26.3,33.2,30.8,22.7,96,92,86,29.97,29.79,14,5,18,0.00
2013-2-17,26.6,22.4,19.2,22.6,14.6,6.7,98,72,55,29.78,29.17,19,14,35,0.01
2013-2-18,30.7,22.9,15.9,9.7,5.5,0.6,60,47,36,30.06,29.46,21,14,34,0.00
2013-2-19,43.9,32.7,19.2,43.1,21.9,0.5,97,67,36,30.13,29.61,10,4,30,0.35
2013-2-20,44.9,36.2,29.1,44.1,28.8,17.2,97,76,55,29.66,29.44,12,8,19,0.15
2013-2-21,33.4,27.6,22.8,26.5,17.5,10.6,81,66,52,30.15,29.66,13,8,19,0.00
2013-2-22,38.9,32.2,26.3,26.0,23.5,21.0,90,71,49,30.41,30.15,13,5,18,0.00
2013-2-23,38.8,32.9,27.0,33.8,29.4,23.1,100,87,72,30.39,30.06,5,2,18,0.01
2013-2-24,34.3,31.5,28.2,32.8,30.6,27.2,97,96,93,30.06,29.81,8,4,18,0.18
2013-2-25,38.6,30.6,26.2,31.3,27.1,24.8,96,87,63,30.27,29.92,9,4,13,0.01
2013-2-26,42.4,33.3,25.1,32.0,28.2,23.1,94,82,61,30.40,30.28,6,1,9,0.00
2013-2-27,38.7,33.9,27.5,34.6,31.7,26.2,100,92,79,30.29,29.71,10,5,13,0.53
2013-2-28,42.1,38.6,32.4,41.8,37.7,31.4,99,97,91,29.70,29.56,10,5,16,0.12
2013-3-1,34.4,33.0,31.9,32.5,31.4,30.4,96,94,89,29.69,29.55,9,6,18,0.02
2013-3-2,40.0,34.6,32.0,33.9,32.3,31.0,100,92,73,29.67,29.62,10,4,15,0.06
2013-3-3,41.6,36.8,33.3,36.0,33.2,28.9,98,87,75,29.64,29.53,6,3,10,0.01
2013-3-4,34.6,32.6,31.0,30.5,28.3,26.1,96,84,74,29.69,29.52,11,6,19,0.02
2013-3-5,44.1,37.7,31.6,36.0,34.2,30.6,97,88,70,30.14,29.69,14,7,19,0.01
2013-3-6,38.7,35.5,33.0,34.0,30.8,27.4,94,83,71,30.28,30.14,11,8,21,0.00
2013-3-7,37.3,34.5,31.6,28.6,27.0,26.1,88,74,65,30.24,30.09,18,12,29,0.00
2013-3-8,47.1,37.5,30.2,28.4,24.9,21.6,92,63,37,30.21,30.04,20,15,27,0.00
2013-3-9,47.0,36.2,28.4,29.5,25.3,21.5,88,66,37,30.42,30.21,14,6,26,0.00
2013-3-10,40.3,30.3,23.8,30.9,25.9,21.5,93,84,68,30.46,30.40,5,1,9,0.00
2013-3-11,42.5,40.4,37.3,40.9,37.8,35.0,95,91,84,30.30,30.19,12,8,18,0.00
2013-3-12,48.2,45.4,42.2,47.7,43.9,40.6,98,95,89,30.21,29.78,10,7,17,0.53
2013-3-13,49.3,44.3,33.3,48.0,39.7,28.1,99,85,61,29.78,29.68,12,5,20,0.00
2013-3-14,41.5,32.2,22.7,29.7,24.1,8.8,94,73,43,29.76,29.63,13,5,29,0.00
2013-3-15,35.9,25.9,17.9,21.2,11.9,6.7,83,56,33,29.82,29.64,11,6,20,0.00
2013-3-16,36.5,29.9,23.8,23.2,16.3,9.7,85,58,34,29.92,29.64,11,5,17,0.00
2013-3-17,32.3,25.6,18.3,16.3,7.5,-0.5,82,48,28,30.34,29.92,18,6,24,0.00
2013-3-18,35.6,26.2,16.2,22.6,7.8,0.6,72,47,25,30.48,30.33,10,4,16,0.00
2013-3-19,33.4,29.2,24.3,29.6,26.3,22.2,97,89,64,30.32,29.67,12,5,15,0.38
2013-3-20,35.3,28.5,21.4,29.3,24.4,19.9,100,85,66,29.75,29.63,13,7,19,0.01
2013-3-21,37.5,31.9,25.2,26.9,21.8,14.2,90,67,40,29.80,29.63,11,4,17,0.00
2013-3-22,39.3,31.0,22.4,24.2,20.2,17.1,92,66,42,29.67,29.61,12,4,16,0.00
2013-3-23,40.7,33.9,27.5,25.7,22.0,17.7,72,62,47,29.68,29.51,19,9,30,0.00
2013-3-24,45.3,38.1,30.7,27.9,25.9,24.7,81,62,46,29.80,29.66,13,5,19,0.00
2013-3-25,43.7,36.0,27.3,34.2,28.9,24.4,92,76,58,29.80,29.61,10,3,11,0.00
2013-3-26,43.3,36.5,32.9,29.3,26.4,24.4,74,67,48,29.64,29.57,13,9,23,0.00
2013-3-27,45.3,40.6,33.4,39.2,34.5,26.3,95,80,57,29.88,29.75,11,6,19,0.11
2013-3-28,52.5,41.0,33.8,37.3,34.4,30.9,100,79,47,29.99,29.88,8,3,13,0.00
2013-3-29,55.6,44.9,32.7,38.2,32.9,29.3,93,65,39,30.03,29.96,12,4,17,0.00
2013-3-30,55.6,41.9,30.9,34.0,28.3,16.1,93,64,22,30.11,30.00,12,3,17,0.00
2013-3-31,49.7,40.0,26.7,39.8,29.5,18.6,91,70,31,30.15,29.90,11,3,14,0.00
2013-4-1,50.9,43.2,35.5,43.7,39.7,22.4,97,88,57,29.89,29.53,11,6,18,0.59
2013-4-2,37.9,33.2,28.8,22.9,15.8,8.6,67,50,31,29.85,29.70,14,7,22,0.00
2013-4-3,43.4,35.8,30.2,20.4,15.4,10.0,63,45,27,30.06,29.83,16,10,29,0.00
2013-4-4,49.1,38.9,31.4,36.2,21.4,7.6,80,52,20,30.24,30.00,14,9,21,0.00
2013-4-5,49.9,43.5,38.2,35.7,32.3,24.2,80,65,40,30.00,29.67,14,8,20,0.00
2013-4-6,40.0,34.0,28.2,25.5,10.6,3.3,60,39,23,30.37,29.83,17,8,30,0.00
2013-4-7,44.3,38.2,27.3,40.7,29.5,13.7,88,71,55,30.38,30.01,16,8,22,0.00
2013-4-8,59.0,48.9,40.8,41.1,38.1,35.2,92,69,43,30.17,29.93,13,5,22,0.00
2013-4-9,46.7,43.4,40.8,44.5,41.0,37.8,96,92,78,30.16,29.92,6,2,19,0.14
2013-4-10,54.5,45.1,40.6,48.0,43.2,39.5,98,93,77,30.03,29.92,8,2,19,0.18
2013-4-11,51.9,44.4,40.0,43.7,35.6,20.3,98,74,41,30.23,29.89,13,4,20,0.01
2013-4-12,40.0,36.3,34.5,35.0,26.8,17.1,96,71,44,30.29,29.92,8,4,16,0.27
2013-4-13,46.1,39.3,33.9,40.2,36.3,33.0,97,90,73,29.95,29.80,7,4,12,0.07
2013-4-14,51.4,43.1,36.2,43.4,39.9,34.9,96,89,57,30.20,29.92,8,2,9,0.07
2013-4-15,52.9,41.2,31.4,41.3,37.3,30.4,97,87,61,30.47,30.21,7,3,12,0.00
2013-4-16,50.5,45.5,40.4,48.0,42.3,38.8,97,89,77,30.46,29.99,17,9,24,0.00
2013-4-17,60.5,52.7,40.3,49.6,35.5,26.1,92,56,29,30.38,29.99,14,6,23,0.00
2013-4-18,48.5,42.6,33.1,41.8,33.7,24.3,89,72,40,30.51,30.23,11,3,16,0.00
2013-4-19,57.6,50.7,45.2,55.6,49.4,41.6,99,95,87,30.22,29.69,15,9,24,0.00
2013-4-20,56.1,53.6,49.8,56.0,53.3,49.3,100,99,98,29.73,29.60,16,10,25,0.18
2013-4-21,50.7,43.6,34.3,30.5,24.3,18.4,83,49,28,30.74,30.44,11,5,17,0.00
2013-4-22,48.4,39.6,30.5,37.3,29.6,18.8,93,70,31,30.85,30.69,6,2,17,0.00
2013-4-23,43.8,39.3,32.3,42.5,36.4,30.0,96,89,72,30.69,30.23,6,4,17,0.01
2013-4-24,60.4,48.4,42.4,52.8,46.1,41.3,100,92,75,30.23,29.81,14,7,17,0.18
2013-4-25,62.7,53.2,42.1,50.6,40.1,30.3,97,66,32,30.31,29.84,15,6,20,0.03
2013-4-26,54.9,45.4,34.7,38.0,34.3,30.1,93,68,40,30.48,30.31,6,2,17,0.00
2013-4-27,55.0,44.8,35.9,42.9,39.0,34.9,100,81,59,30.45,30.35,7,2,17,0.00
2013-4-28,59.2,46.7,35.9,47.4,38.7,35.1,99,77,48,30.37,30.29,9,2,17,0.01
2013-4-29,59.3,48.7,37.3,47.3,42.5,36.3,98,81,51,30.32,30.27,8,2,14,0.00
2013-4-30,64.1,50.5,38.2,48.6,40.4,34.0,98,73,36,30.41,30.29,8,2,14,0.00
2013-5-1,62.3,50.6,36.9,47.5,37.1,26.5,98,66,28,30.51,30.41,12,3,14,0.01
2013-5-2,58.5,48.9,41.6,51.0,41.9,34.5,98,79,46,30.56,30.45,7,2,12,0.00
2013-5-3,61.2,48.4,37.3,46.8,41.7,35.7,96,79,58,30.59,30.43,8,2,12,0.00
2013-5-4,57.1,46.2,37.9,45.0,40.4,36.6,98,81,56,30.44,30.38,9,2,12,0.01
2013-5-5,56.1,46.1,35.2,44.4,39.7,34.4,99,80,58,30.39,30.30,10,4,13,0.00
2013-5-6,57.7,47.1,37.4,47.9,43.4,36.6,99,88,66,30.33,30.22,9,4,14,0.01
2013-5-7,66.1,52.4,43.8,54.7,49.0,43.4,99,89,64,30.23,30.15,10,4,12,0.00
2013-5-8,68.9,58.5,50.5,62.5,55.6,49.8,99,91,76,30.29,30.17,8,3,11,0.23
2013-5-9,57.2,53.4,51.0,56.9,52.9,50.7,99,98,97,30.17,29.94,4,1,6,0.56
2013-5-10,64.3,54.9,49.5,59.1,53.1,49.2,100,94,78,30.01,29.93,8,2,10,0.01
2013-5-11,59.9,54.7,50.5,58.1,53.9,50.0,99,97,91,29.98,29.73,14,6,22,0.15
2013-5-12,64.9,56.4,50.0,61.4,54.3,45.8,100,93,73,29.76,29.57,9,4,15,0.05
2013-5-13,56.8,49.7,42.9,46.2,36.4,30.8,94,62,42,30.03,29.75,15,7,22,0.00
2013-5-14,55.5,48.9,43.0,43.3,35.9,30.6,92,62,41,30.06,29.98,10,4,14,0.00
2013-5-15,58.9,48.7,36.2,49.3,39.2,26.3,97,75,30,30.06,29.70,15,5,21,0.23
2013-5-16,76.6,60.4,47.0,56.4,48.9,40.9,99,71,29,29.82,29.59,11,5,16,0.01
2013-5-17,62.2,56.2,46.5,46.8,42.4,37.7,87,61,41,30.24,29.81,15,5,19,0.00
2013-5-18,59.5,50.2,41.0,46.2,43.7,39.9,97,80,57,30.39,30.23,7,2,10,0.00
2013-5-19,58.4,51.5,47.5,49.5,47.6,45.5,98,87,71,30.41,30.28,4,2,7,0.05
2013-5-20,71.0,57.2,49.8,63.1,55.2,49.3,99,93,76,30.28,29.95,8,3,12,0.58
2013-5-21,53.5,49.8,48.2,52.7,49.0,47.4,98,97,95,30.16,29.98,8,2,9,0.19
2013-5-22,54.1,50.4,48.3,52.6,49.7,47.8,99,97,93,30.15,29.95,7,1,8,0.37
2013-5-23,60.9,54.9,48.3,60.0,54.2,47.8,100,97,92,30.00,29.86,13,4,21,0.00
2013-5-24,61.1,57.1,51.0,61.1,56.8,49.9,100,99,96,29.87,29.68,14,8,19,1.12
2013-5-25,52.6,50.0,48.2,52.1,49.4,47.8,100,98,94,29.85,29.68,15,9,20,0.37
2013-5-26,55.3,49.9,46.1,49.1,46.1,41.1,99,88,67,30.00,29.62,10,6,17,0.30
2013-5-27,67.8,55.1,42.2,43.5,38.6,33.0,88,59,28,30.19,30.00,17,5,25,0.00
2013-5-28,69.1,55.6,40.2,50.4,41.7,34.9,98,65,30,30.28,30.19,13,4,18,0.00
2013-5-29,54.6,52.9,49.9,54.3,52.3,47.7,100,98,92,30.25,30.04,6,2,12,0.07
2013-5-30,82.1,66.7,53.1,68.4,60.5,53.1,100,83,52,30.06,29.99,11,3,14,0.00
2013-5-31,88.0,73.7,58.3,69.3,63.8,57.7,98,74,50,30.08,29.92,10,3,14,0.00
2013-6-1,86.6,73.8,62.3,71.4,65.2,61.3,99,76,58,29.95,29.84,13,4,18,0.00
2013-6-2,75.4,69.5,63.6,67.7,64.3,60.1,97,84,74,29.84,29.72,17,6,22,0.13
2013-6-3,70.4,63.0,57.6,66.3,61.0,56.8,99,93,80,29.85,29.74,12,5,21,0.02
2013-6-4,65.6,60.2,51.4,58.7,47.1,42.1,98,64,45,30.08,29.79,16,5,29,0.00
2013-6-5,67.8,58.3,47.6,51.8,46.2,38.7,91,66,37,30.19,30.07,11,4,14,0.00
2013-6-6,69.0,58.9,49.8,55.2,50.6,44.2,97,77,44,30.24,30.18,5,1,10,0.00
2013-6-7,59.2,55.6,52.8,54.0,51.7,46.6,98,87,67,30.19,29.96,5,2,10,0.41
2013-6-8,68.6,58.9,53.4,61.2,56.3,52.8,99,92,74,30.01,29.65,12,5,19,0.98
2013-6-9,70.0,61.7,57.6,61.6,58.1,55.6,98,88,73,30.18,30.01,8,2,11,0.00
2013-6-10,69.3,59.6,53.1,57.7,55.1,51.3,98,86,59,30.26,30.09,9,3,11,0.00
2013-6-11,56.6,54.7,53.8,55.8,54.0,53.0,100,98,96,30.09,29.56,9,4,18,0.67
2013-6-12,60.3,56.9,53.9,58.3,55.5,53.3,99,95,86,29.78,29.53,12,5,22,0.15
2013-6-13,71.0,59.2,51.7,57.4,53.8,49.7,98,83,50,29.82,29.77,8,3,22,0.00
2013-6-14,69.3,59.2,53.7,59.6,54.8,52.3,98,86,67,29.78,29.70,8,2,22,0.00
2013-6-15,76.7,63.0,50.6,52.9,48.9,42.6,98,65,31,29.92,29.76,12,4,22,0.01
2013-6-16,74.5,62.4,50.1,58.2,54.0,49.0,97,76,46,29.93,29.74,8,3,22,0.00
2013-6-17,76.6,65.0,55.5,64.8,60.3,54.3,98,86,62,29.90,29.75,13,3,22,0.31
2013-6-18,68.6,61.4,56.2,59.8,56.4,51.6,99,85,62,30.01,29.87,7,1,22,0.00
2013-6-19,74.0,62.8,52.2,56.3,51.0,42.3,98,70,36,30.16,29.95,9,3,13,0.00
2013-6-20,73.4,62.6,49.2,57.3,52.3,48.2,98,72,44,30.28,30.16,8,3,12,0.00
2013-6-21,77.6,65.2,54.3,60.6,56.3,50.7,98,76,43,30.25,30.20,9,2,11,0.00
2013-6-22,79.8,66.3,58.2,65.4,61.7,57.3,97,86,56,30.23,30.13,8,2,10,0.00
2013-6-23,75.2,67.1,63.0,67.7,64.2,61.7,97,91,75,30.18,29.99,9,3,15,0.17
2013-6-24,90.3,76.9,65.3,74.2,69.6,64.7,99,80,51,29.99,29.83,10,4,20,0.02
2013-6-25,87.2,76.3,67.7,72.6,69.0,66.7,98,79,54,29.88,29.73,11,3,12,0.61
2013-6-26,77.8,66.5,57.9,72.5,64.9,57.3,100,95,83,29.92,29.72,5,2,11,0.19
2013-6-27,64.4,57.9,54.5,60.4,56.7,53.9,99,96,84,29.93,29.87,4,1,8,0.43
2013-6-28,65.2,60.2,56.3,65.2,60.1,56.0,100,100,99,29.86,29.58,7,4,12,0.86
2013-6-29,68.9,64.4,62.3,68.4,64.2,62.3,100,99,92,29.74,29.58,14,6,21,0.02
2013-6-30,78.4,68.2,62.6,71.9,66.3,62.6,100,94,80,29.97,29.73,9,6,15,0.00
2013-7-1,80.2,68.4,64.0,73.5,67.4,63.1,100,97,80,30.13,29.96,7,2,10,0.14
2013-7-2,66.2,62.2,58.2,66.2,62.0,57.9,100,99,97,30.25,30.11,5,1,7,0.35
2013-7-3,77.4,63.9,58.1,70.0,62.3,58.1,100,95,78,30.24,30.13,9,2,10,0.02
2013-7-4,89.1,74.8,62.4,76.3,69.9,62.1,100,86,64,30.19,30.07,8,2,13,0.00
2013-7-5,89.2,78.2,67.9,76.5,71.6,67.3,99,82,58,30.14,30.01,10,3,17,0.00
2013-7-6,88.0,78.9,70.6,76.9,72.0,65.1,99,81,60,30.04,29.93,7,2,10,0.00
2013-7-7,88.0,77.4,66.1,75.1,68.0,63.1,91,74,50,29.99,29.91,9,2,15,0.00
2013-7-8,77.8,70.8,65.0,71.1,66.1,61.2,99,86,59,30.11,29.92,10,1,15,0.85
2013-7-9,67.8,64.5,60.9,66.9,62.9,59.6,99,94,85,30.16,30.10,3,1,6,0.10
2013-7-10,68.4,63.3,60.0,68.4,62.3,59.4,100,97,86,30.13,29.81,5,1,6,0.01
2013-7-11,81.1,71.7,68.4,73.3,69.8,68.4,100,94,70,29.99,29.77,6,2,9,0.00
2013-7-12,80.9,69.9,60.3,69.8,61.0,58.1,98,75,52,30.25,29.98,11,4,12,0.00
2013-7-13,79.8,68.9,57.9,65.7,61.5,57.1,99,79,55,30.35,30.24,7,2,10,0.00
2013-7-14,88.3,75.1,64.2,73.0,67.9,63.1,99,80,56,30.31,30.20,7,2,11,0.00
2013-7-15,91.0,77.0,65.9,72.5,68.9,65.3,99,78,48,30.20,30.08,9,3,15,0.00
2013-7-16,89.9,77.9,68.8,74.6,69.4,66.7,98,77,54,30.19,30.10,7,2,15,0.00
2013-7-17,79.6,73.6,68.1,71.5,68.3,65.4,97,84,71,30.20,29.95,11,5,18,0.13
2013-7-18,84.9,75.0,69.3,73.4,68.9,59.4,99,83,46,30.03,29.94,9,3,15,0.01
2013-7-19,87.9,77.9,69.4,77.9,72.5,68.5,99,84,66,29.98,29.66,10,4,15,0.00
2013-7-20,87.1,79.1,71.6,74.6,71.0,65.3,92,77,60,29.79,29.62,11,4,15,0.00
2013-7-21,76.2,69.0,61.6,65.0,60.3,54.2,94,75,50,30.06,29.79,9,2,15,0.00
2013-7-22,74.8,66.8,61.1,66.6,61.4,54.9,99,84,57,30.08,29.96,6,1,9,0.00
2013-7-23,69.2,65.5,62.0,69.2,65.1,60.6,100,99,95,29.96,29.56,4,1,8,0.37
2013-7-24,80.1,69.5,60.5,74.1,65.4,53.6,100,88,69,30.00,29.60,8,3,14,0.01
2013-7-25,73.0,63.2,56.7,62.5,56.4,50.4,97,79,60,30.15,30.00,10,4,14,0.06
2013-7-26,68.1,65.0,62.3,66.3,63.7,61.5,98,96,90,30.11,29.90,12,7,21,0.15
2013-7-27,79.3,70.1,62.3,68.1,64.4,61.7,100,83,63,30.07,29.93,9,3,12,0.01
2013-7-28,69.6,65.3,61.5,67.8,64.2,60.9,99,96,92,30.08,30.04,5,1,8,0.13
2013-7-29,73.1,65.3,61.0,68.4,64.2,60.7,100,96,84,30.11,30.03,6,2,12,0.17
2013-7-30,78.1,68.4,60.5,67.5,63.4,59.6,100,86,56,30.09,30.03,8,3,12,0.01
2013-7-31,78.7,67.2,56.8,63.2,59.7,56.1,99,79,52,30.14,30.07,11,3,14,0.00
2013-8-1,76.3,67.4,59.4,69.7,64.6,58.8,99,91,78,30.08,29.92,10,3,14,0.01
2013-8-2,73.8,66.3,63.3,68.9,65.2,62.8,99,96,83,29.92,29.78,7,3,12,0.40
2013-8-3,76.4,66.0,59.5,66.4,62.7,58.6,100,90,68,29.85,29.75,10,2,12,0.01
2013-8-4,77.6,64.8,56.0,64.7,59.5,55.4,99,85,52,29.86,29.76,11,3,15,0.14
2013-8-5,72.5,62.4,53.6,57.4,53.3,47.8,97,74,48,30.06,29.85,10,3,21,0.01
2013-8-6,75.4,62.9,49.6,57.5,52.6,47.8,96,72,46,30.18,30.05,10,3,21,0.00
2013-8-7,73.1,63.6,53.0,65.6,59.6,51.9,99,88,62,30.23,30.16,7,2,21,0.00
2013-8-8,71.0,65.8,62.2,68.6,63.7,58.8,98,93,82,30.16,30.04,7,3,11,0.22
2013-8-9,69.5,67.7,66.1,69.2,67.2,65.3,100,98,96,30.05,29.74,11,6,16,0.32
2013-8-10,80.1,71.1,59.5,69.5,60.6,50.4,100,73,39,30.01,29.75,10,4,15,0.00
2013-8-11,76.4,64.7,51.7,58.4,54.6,50.6,97,72,47,30.07,30.00,10,3,16,0.00
2013-8-12,78.3,67.2,57.1,62.6,59.6,56.3,98,78,53,30.03,29.93,9,3,13,0.00
2013-8-13,72.4,65.5,58.1,67.5,63.1,57.3,99,92,81,29.94,29.73,11,2,18,0.00
2013-8-14,75.8,67.0,61.1,68.5,60.9,50.2,100,83,50,29.90,29.63,10,4,17,0.05
2013-8-15,74.1,63.9,53.0,59.2,54.3,50.5,94,73,48,30.10,29.90,10,4,13,0.00
2013-8-16,75.3,64.0,54.1,62.0,57.0,53.3,99,80,51,30.20,30.09,9,2,12,0.00
2013-8-17,78.3,65.0,54.8,62.4,57.7,54.2,99,80,48,30.29,30.20,8,2,12,0.01
2013-8-18,76.9,65.0,54.2,63.4,58.9,53.4,98,82,55,30.30,30.07,6,2,8,0.00
2013-8-19,80.7,69.5,57.7,66.9,62.5,57.1,99,80,58,30.08,29.91,10,3,16,0.01
2013-8-20,84.4,71.9,61.8,69.2,63.8,60.6,97,77,54,30.10,29.97,9,2,11,0.00
2013-8-21,84.2,72.2,62.1,68.8,64.8,61.1,98,79,56,30.15,30.00,8,3,13,0.00
2013-8-22,85.1,72.6,61.9,71.5,66.4,60.9,98,82,60,30.01,29.78,10,4,17,0.00
2013-8-23,76.8,70.0,59.4,67.5,58.4,51.5,93,69,44,30.16,29.78,12,5,19,0.00
2013-8-24,77.9,63.4,50.6,56.2,51.4,47.8,96,68,37,30.33,30.16,6,2,15,0.00
2013-8-25,76.6,64.0,51.2,61.0,55.3,48.5,98,76,39,30.38,30.18,9,2,11,0.00
2013-8-26,76.7,66.6,60.1,67.4,62.8,58.7,96,88,72,30.17,29.89,10,3,14,0.07
2013-8-27,82.0,70.1,61.7,70.0,65.3,61.1,99,86,65,29.93,29.86,7,1,11,0.00
2013-8-28,79.8,67.9,61.8,68.7,64.1,60.9,99,89,66,30.02,29.91,6,1,13,0.01
2013-8-29,69.6,64.7,55.4,65.1,61.3,54.2,98,89,77,30.13,30.01,10,3,17,0.00
2013-8-30,75.0,64.8,54.4,66.8,60.9,53.6,99,88,74,30.06,29.79,9,3,11,0.00
2013-8-31,81.7,70.6,65.2,70.8,67.4,63.8,98,90,68,29.84,29.78,8,2,11,0.36
2013-9-1,81.8,72.1,67.5,74.0,69.6,66.3,100,92,73,29.94,29.78,6,2,9,0.01
2013-9-2,69.2,65.4,61.4,69.2,65.2,61.1,100,99,97,29.94,29.77,6,2,12,3.59
2013-9-3,76.5,69.1,65.8,70.9,67.9,65.3,100,96,82,29.80,29.72,8,2,10,0.01
2013-9-4,77.9,67.9,59.1,65.6,61.3,58.5,99,81,59,29.91,29.76,10,3,15,0.01
2013-9-5,67.7,59.8,51.7,61.7,54.2,46.0,97,83,51,30.16,29.88,10,2,16,0.20
2013-9-6,66.4,55.4,43.2,55.0,46.2,38.0,98,74,38,30.25,30.06,11,3,15,0.00
2013-9-7,72.5,61.3,50.1,60.2,55.2,49.3,98,82,54,30.07,29.82,8,2,15,0.00
2013-9-8,66.0,59.9,47.0,60.5,51.1,41.1,97,74,47,30.09,29.73,13,4,22,0.24
2013-9-9,62.6,55.2,42.8,55.4,47.6,41.1,95,77,51,30.24,30.09,11,5,22,0.00
2013-9-10,64.4,61.5,58.1,62.5,58.8,54.2,99,91,84,30.15,30.06,10,5,14,0.00
2013-9-11,86.0,71.3,62.1,76.8,68.0,61.8,100,90,69,30.08,29.91,16,2,18,0.66
2013-9-12,71.5,67.3,63.8,69.0,66.5,63.2,99,97,89,30.02,29.68,11,4,14,1.07
2013-9-13,71.2,64.7,59.5,68.9,64.2,58.9,100,98,88,29.73,29.60,12,2,17,0.82
2013-9-14,68.9,61.8,55.0,60.2,57.2,50.9,98,86,68,30.05,29.73,8,3,12,0.00
2013-9-15,64.5,57.1,47.4,56.9,51.9,46.5,99,84,56,30.16,30.03,11,3,13,0.00
2013-9-16,64.9,56.5,46.6,57.1,52.4,38.9,98,87,72,30.28,30.00,11,3,15,0.00
2013-9-17,65.8,51.2,39.5,50.8,42.8,37.1,97,75,48,30.43,30.28,9,3,14,0.00
2013-9-18,69.7,53.0,43.2,54.6,47.1,42.7,98,83,51,30.33,30.12,8,2,14,0.01
2013-9-19,72.8,58.5,46.5,56.9,50.3,45.9,99,78,45,30.15,30.05,8,2,11,0.00
2013-9-20,75.3,60.0,47.6,57.9,53.1,46.9,100,81,48,30.13,30.05,5,1,9,0.01
2013-9-21,64.1,60.5,56.7,61.4,59.1,56.1,99,95,87,30.07,29.80,11,6,21,0.01
2013-9-22,68.6,63.1,53.6,64.8,59.8,47.9,99,89,74,29.80,29.62,16,7,25,0.20
2013-9-23,56.7,52.2,47.4,47.5,43.5,40.7,86,72,62,29.97,29.77,14,6,25,0.01
2013-9-24,55.9,51.4,47.9,46.0,43.7,41.1,86,75,66,29.95,29.86,9,4,14,0.00
2013-9-25,60.9,54.3,47.3,51.0,47.0,43.8,92,77,63,30.00,29.89,13,4,19,0.00
2013-9-26,63.6,54.7,44.3,52.7,48.9,43.2,98,82,65,30.16,30.00,11,5,15,0.00
2013-9-27,70.7,60.0,51.7,58.3,53.3,50.6,96,80,57,30.27,30.15,8,3,13,0.00
2013-9-28,72.3,57.2,48.6,59.0,52.4,47.5,98,86,59,30.37,30.27,7,1,13,0.01
2013-9-29,64.1,53.3,45.8,56.6,50.3,45.3,99,90,62,30.31,30.16,7,1,13,0.01
2013-9-30,64.6,52.6,43.0,55.4,49.4,42.5,100,90,68,30.18,30.00,5,1,13,0.01
2013-10-1,74.6,57.6,47.1,58.9,51.7,46.3,98,84,48,30.00,29.84,9,2,13,0.01
2013-10-2,78.7,63.0,51.1,64.7,56.8,50.4,99,82,56,29.92,29.77,7,2,12,0.01
2013-10-3,74.0,60.5,48.9,52.8,50.4,47.5,96,73,43,30.08,29.92,10,2,13,0.00
2013-10-4,70.0,58.2,47.1,57.6,51.9,46.3,99,81,53,30.12,30.05,5,1,6,0.00
2013-10-5,64.7,56.5,48.6,54.2,49.1,43.9,97,78,48,30.18,30.11,4,0,5,0.00
2013-10-6,56.4,51.6,47.2,49.5,45.4,40.9,98,80,56,30.32,30.17,7,2,11,0.10
2013-10-7,64.3,59.3,50.5,64.2,58.9,48.8,100,99,94,30.25,29.83,15,7,24,0.36
2013-10-8,62.3,55.1,42.2,61.9,46.8,40.9,99,76,50,30.42,29.86,10,4,19,0.01
2013-10-9,61.3,47.5,37.4,45.3,40.7,36.6,99,81,47,30.52,30.42,6,1,11,0.01
2013-10-10,63.6,52.8,39.6,52.2,47.7,39.1,100,84,61,30.38,30.23,6,2,8,0.00
2013-10-11,69.3,54.7,45.1,58.9,51.1,44.6,99,89,60,30.23,30.15,4,0,6,0.01
2013-10-12,59.0,54.8,51.3,54.7,51.1,47.9,99,88,75,30.46,30.21,4,2,7,0.01
2013-10-13,59.8,51.9,41.6,50.4,46.5,40.5,96,83,60,30.51,30.43,5,1,6,0.00
2013-10-14,58.7,49.8,39.5,51.6,45.9,39.0,99,87,65,30.43,30.29,9,3,12,0.00
2013-10-15,66.1,57.6,53.1,55.5,53.1,51.6,96,86,66,30.32,30.25,5,1,7,0.00
2013-10-16,60.0,56.4,54.4,56.4,54.7,53.0,98,94,83,30.25,29.94,2,0,6,0.00
2013-10-17,67.4,57.4,53.0,60.1,55.3,52.1,100,93,77,29.93,29.74,7,3,9,0.00
2013-10-18,67.4,58.9,50.1,59.7,53.3,46.8,100,84,55,29.85,29.60,13,4,19,0.24
2013-10-19,61.4,52.3,41.5,52.8,46.9,40.4,97,83,55,29.96,29.79,10,3,14,0.00
2013-10-20,61.8,55.6,43.1,54.1,44.2,34.0,95,69,37,29.98,29.69,12,5,18,0.00
2013-10-21,60.6,50.0,38.0,51.4,43.0,36.7,97,78,49,30.11,29.98,7,3,12,0.00
2013-10-22,61.1,55.6,46.9,55.2,51.9,44.7,96,88,76,30.01,29.72,11,5,20,0.12
2013-10-23,54.0,44.8,36.4,45.2,39.8,35.6,99,85,52,29.80,29.62,6,1,12,0.01
2013-10-24,51.9,45.4,35.3,40.7,33.8,27.9,95,65,43,29.85,29.62,13,5,21,0.00
2013-10-25,49.9,42.7,33.1,35.9,32.4,28.6,91,68,49,30.13,29.85,11,4,18,0.00
2013-10-26,52.2,42.3,29.5,39.6,34.0,28.2,96,74,51,30.15,29.91,15,6,22,0.00
2013-10-27,55.0,47.3,42.1,43.2,38.6,30.2,95,73,53,30.04,29.80,9,4,14,0.11
2013-10-28,53.3,42.6,32.9,40.0,33.1,25.7,96,71,52,30.38,30.04,14,4,23,0.00
2013-10-29,48.5,35.6,26.9,31.7,26.7,21.7,95,73,36,30.49,30.38,6,1,10,0.00
2013-10-30,49.0,36.4,29.6,34.7,30.3,25.8,97,81,41,30.39,30.20,9,2,17,0.01
2013-10-31,57.9,45.1,30.0,57.3,43.6,28.7,99,94,82,30.28,29.82,13,5,18,0.21
2013-11-1,62.7,59.7,56.9,60.3,57.0,52.4,99,91,78,29.82,29.38,21,12,32,0.24
2013-11-2,62.9,53.9,43.3,52.4,46.8,42.0,97,78,55,29.77,29.58,12,3,15,0.00
2013-11-3,47.6,39.2,32.1,43.3,27.8,20.4,89,65,44,30.44,29.78,15,8,20,0.01
2013-11-4,40.9,32.8,27.4,26.8,21.9,18.6,92,65,43,30.75,30.44,10,4,20,0.00
2013-11-5,47.8,36.4,26.7,37.8,31.4,24.9,95,83,61,30.75,30.54,10,2,20,0.00
2013-11-6,53.8,47.8,35.9,51.2,44.3,34.3,95,88,78,30.54,30.03,14,7,21,0.00
2013-11-7,59.0,52.3,41.1,57.1,48.8,30.7,97,88,65,30.03,29.65,14,8,22,0.04
2013-11-8,45.3,40.0,32.8,30.9,27.3,25.2,83,61,47,30.01,29.79,13,6,20,0.00
2013-11-9,45.0,37.9,30.0,30.1,24.7,21.6,87,60,40,30.15,30.01,14,5,21,0.00
2013-11-10,45.7,40.4,34.1,43.3,38.2,29.8,97,92,81,30.11,29.74,7,1,20,0.07
2013-11-11,41.4,40.0,37.9,38.3,35.5,33.1,96,84,74,30.00,29.77,9,5,16,0.00
2013-11-12,35.9,31.9,29.6,24.5,19.3,17.3,65,59,52,30.14,29.97,11,7,21,0.00
2013-11-13,34.4,29.6,25.6,20.1,15.8,13.2,69,56,43,30.25,30.12,12,6,21,0.00
2013-11-14,47.6,37.1,29.8,30.5,26.4,20.2,91,66,45,30.12,30.01,9,4,21,0.00
2013-11-15,51.7,39.1,29.3,37.7,31.2,27.5,95,77,40,30.20,30.11,10,2,21,0.00
2013-11-16,53.2,40.3,32.8,45.6,36.7,31.0,96,87,66,30.38,30.20,4,0,21,0.00
2013-11-17,52.9,45.7,35.6,52.4,43.6,34.1,98,93,80,30.39,29.97,8,1,21,0.10
2013-11-18,62.0,54.7,45.7,58.2,50.1,37.5,99,86,56,29.96,29.51,18,6,30,0.18
2013-11-19,50.3,38.8,32.1,38.3,24.2,18.2,69,56,47,30.22,29.59,16,8,24,0.00
2013-11-20,40.0,32.2,25.0,20.7,16.1,10.3,82,53,30,30.66,30.22,13,4,21,0.00
2013-11-21,45.2,33.0,22.5,30.0,22.9,14.8,93,69,32,30.67,30.37,7,1,21,0.00
2013-11-22,39.3,36.3,31.4,36.3,32.0,25.5,96,85,61,30.36,29.80,5,1,21,0.01
2013-11-23,41.3,36.8,27.3,40.2,25.8,15.5,96,67,37,29.83,29.69,17,7,23,0.01
2013-11-24,27.7,23.3,19.8,25.8,9.0,4.2,93,55,43,30.03,29.69,21,13,32,0.00
2013-11-25,35.2,23.4,18.1,23.9,6.9,1.8,74,50,34,30.34,30.04,16,7,27,0.00
2013-11-26,36.0,33.1,28.9,32.2,28.0,19.3,96,83,54,30.34,30.19,11,4,25,0.04
2013-11-27,59.6,49.5,33.2,59.3,48.9,32.2,99,98,92,30.18,29.15,19,8,37,2.29
2013-11-28,38.6,31.1,22.6,36.5,18.4,6.8,92,60,37,30.42,29.30,18,8,37,0.00
2013-11-29,26.9,22.6,18.5,12.9,10.4,6.3,75,60,43,30.77,30.42,9,4,37,0.00
2013-11-30,34.0,23.4,13.7,27.5,15.5,8.7,90,73,44,30.85,30.46,6,2,37,0.00
2013-12-1,39.8,35.8,32.6,36.7,33.2,27.1,98,91,68,30.46,30.10,12,4,37,0.49
2013-12-2,43.9,38.4,35.7,43.1,37.9,35.2,99,98,98,30.09,29.94,8,3,12,0.68
2013-12-3,41.0,36.8,34.4,39.4,35.8,31.2,99,96,88,29.95,29.87,9,3,16,0.00
2013-12-4,42.4,34.8,28.5,31.1,28.9,26.7,94,79,61,30.25,29.90,10,3,16,0.00
2013-12-5,49.5,39.0,27.3,49.2,37.5,25.8,99,94,85,30.29,29.94,9,2,16,0.00
2013-12-6,49.4,43.6,37.4,49.1,41.6,31.6,99,93,77,30.14,29.87,7,3,16,0.04
2013-12-7,38.0,33.6,26.0,31.4,21.8,10.9,87,63,46,30.45,30.09,10,5,17,0.00
2013-12-8,28.3,25.9,24.0,19.5,13.0,8.4,78,58,44,30.62,30.44,10,3,16,0.00
2013-12-9,38.9,30.3,24.4,38.0,25.3,13.0,97,83,59,30.58,29.87,8,3,16,0.21
2013-12-10,33.8,28.5,22.5,32.5,26.9,18.6,96,94,85,29.93,29.75,6,2,13,0.02
2013-12-11,29.7,24.2,15.3,21.6,18.2,12.9,93,78,61,30.16,29.94,12,5,17,0.00
2013-12-12,21.8,16.2,8.7,16.3,5.3,-1.9,84,63,42,30.28,30.04,12,4,15,0.00
2013-12-13,23.7,18.3,7.0,12.7,6.5,-4.6,74,60,44,30.42,29.93,13,8,17,0.00
2013-12-14,14.3,9.2,3.2,11.1,-2.3,-7.4,90,60,42,30.66,30.42,10,4,14,0.00
2013-12-15,16.7,14.3,11.6,15.0,11.9,8.7,93,90,85,30.42,29.39,20,8,29,0.17
2013-12-16,25.4,15.1,6.2,17.8,5.4,-5.3,92,68,39,30.24,29.69,14,5,23,0.00
2013-12-17,15.4,8.6,-4.7,13.6,1.5,-9.6,100,73,56,30.35,30.04,8,4,20,0.10
2013-12-18,27.2,17.3,10.5,24.7,15.3,7.9,100,92,89,30.05,29.86,11,5,20,0.01
2013-12-19,34.2,25.1,12.6,29.6,22.2,10.5,94,89,76,30.12,29.95,10,2,20,0.00
2013-12-20,43.7,33.6,24.8,40.2,31.6,22.8,97,92,85,30.16,29.93,7,1,10,0.00
2013-12-21,38.7,35.2,32.7,38.2,34.5,32.2,98,98,96,29.98,29.85,4,1,8,0.07
2013-12-22,34.8,30.4,27.4,34.3,29.7,26.4,98,97,96,30.12,29.91,8,2,12,0.32
2013-12-23,33.3,30.9,27.7,32.8,30.3,27.0,98,97,97,30.14,29.99,0,0,8,0.21
2013-12-24,34.1,25.6,14.7,33.3,23.5,11.2,100,92,85,30.20,30.08,0,0,0,0.00
2013-12-25,18.9,12.3,7.9,16.8,8.6,3.5,92,85,79,30.59,30.20,7,3,11,0.00
2013-12-26,36.1,22.5,12.6,34.8,20.9,10.5,97,93,91,30.55,30.09,7,2,14,0.15
2013-12-27,32.3,24.1,14.6,29.4,21.7,12.7,95,91,87,30.23,30.15,5,1,7,0.00
2013-12-28,35.6,28.0,17.1,31.4,25.5,14.9,96,90,83,30.20,29.97,9,3,15,0.00
2013-12-29,38.2,29.1,19.9,36.6,27.8,18.0,100,95,91,30.06,29.52,9,1,13,0.62
2013-12-30,32.2,21.6,7.8,28.4,17.8,1.3,96,86,72,30.21,29.52,11,3,14,0.02
2013-12-31,11.6,7.1,2.3,6.4,2.2,-1.9,92,80,67,30.22,30.07,7,2,11,0.00
2014-1-1,21.3,11.2,2.3,12.6,5.4,-0.7,90,78,56,30.44,30.14,11,3,18,0.00
2014-1-2,8.5,-0.9,-5.9,1.2,-5.7,-9.7,84,80,67,30.48,30.03,20,12,26,0.00